sat.trackr.live / text

‹ back to catalog

STARLINK-34231

NORAD 64175 · 2025-113F

PAYLOAD ACTIVE UNKNOWN

§ Identity

Operator
Country
US
Launch date
2025-05-28
Launch site
AFETR
Launch vehicle
Mass (kg)
RCS (m²)

Purposes: comms

External: N2YO · Heavens-Above · Gunter

§ Orbital elements

Epoch: 2026-09-20T23:21:23.063904Z

Period
94.01 min
Inclination
53.1606°
Eccentricity
0.0001988
Mean motion
15.31709191 rev/d
Perigee alt
469.4 km
Apogee alt
472.1 km
Semi-major
6,848.8 km
B*
3.9040e-4
RAAN
262.6605°
Arg perigee
119.2695°
Mean anomaly
240.8506°
Rev number
7,498

§ Raw data

STARLINK-342311 64175U 25113F   26263.97318361  .00011772  00000+0  39040-3 0  99982 64175  53.1606 262.6605 0001988 119.2695 240.8506 15.31709191 74982

JSON: /api/v1/satellites/64175 · /tle

For live sub-satellite position, see the globe view (requires WebGL).

§ Visibility from observer

Set your observer location to see the next 7 days of passes ≥ 10°. The values pass through the URL so the page stays shareable.

No JS? Fill the form by hand. The geolocation button needs JavaScript.